This is the latest recevied weather packets stored in our database for station/object LRBM. If no packets are shown the sender has not sent any weather packets the latest 10 day(s).
| Time | Temp. | Humidity | Pressure | Rain* | Wind** | Luminosity | Snow |
|---|---|---|---|---|---|---|---|
| 1777706315 | 12.78° C | 51% | 1024 hPa | - | - | - | - |
| 1777705416 | 12.78° C | 51% | 1024 hPa | - | - | - | - |
| 1777704515 | 12.22° C | 51% | 1024 hPa | - | - | - | - |
| 1777703615 | 12.22° C | 51% | 1024 hPa | - | - | - | - |
| 1777702716 | 11.11° C | 58% | 1024 hPa | - | - | - | - |
| 1777701816 | 11.11° C | 58% | 1024 hPa | - | - | - | - |
| 1777700915 | 8.89° C | 62% | 1024 hPa | - | - | - | - |
| 1777700016 | 8.89° C | 62% | 1024 hPa | - | - | - | - |
| 1777699115 | 7.22° C | 71% | 1024 hPa | - | - | - | - |
| 1777698215 | 7.22° C | 71% | 1024 hPa | - | - | - | - |
| 1777697315 | 7.22° C | 71% | 1024 hPa | - | - | - | - |
| 1777696415 | 7.22° C | 71% | 1024 hPa | - | - | - | - |
| 1777695515 | 3.89° C | 87% | 1024 hPa | - | - | - | - |
| 1777694615 | 3.89° C | 87% | 1024 hPa | - | - | - | - |
| 1777693794 | 2.78° C | 81% | 1023 hPa | - | - | - | - |
| 1777692815 | 2.78° C | 81% | 1023 hPa | - | - | - | - |
| 1777691915 | 3.89° C | 81% | 1023 hPa | - | - | - | - |
| 1777691015 | 3.89° C | 81% | 1023 hPa | - | - | - | - |
| 1777690115 | 2.78° C | 87% | 1023 hPa | - | - | - | - |
| 1777689215 | 2.78° C | 87% | 1023 hPa | - | - | - | - |
| 1777688316 | 2.78° C | 87% | 1023 hPa | - | - | - | - |
| 1777670315 | 7.78° C | 57% | 1024 hPa | - | - | - | - |
| 1777669416 | 7.78° C | 57% | 1024 hPa | - | - | - | - |
| 1777668515 | 8.89° C | 50% | 1024 hPa | - | - | - | - |
| 1777666716 | 10° C | 47% | 1023 hPa | - | - | - | - |
* Rain since midnight (hover to see other rain measurements)
** Current wind speed in m/s (hover to see current wind gust speed)